Manhattan, KS

10:35 AM CST on December 12, 2019 (GMT -0600)
Manhattan Regional

Weather History for KMHK - October, 2019

Change the Weather History Date:

Friday, October 11, 2019

  Actual Average Record
Temperature  
Mean Temperature 40 °F 57 °F  
Max Temperature 49 °F 70 °F 89 °F (2015)
Min Temperature 30 °F 44 °F 30 °F (2019)
Degree Days  
Heating Degree Days 25 9  
Month to date heating degree days 83 83  
Since 1 July heating degree days 84 153  
Cooling Degree Days 0 1  
Month to date cooling degree days 13 18  
Year to date cooling degree days 1608 1355  
Moisture  
Dew Point 26 °F    
Average Humidity 63    
Maximum Humidity 92    
Minimum Humidity 34    
Precipitation  
Precipitation 0.00 in 0.07 in 0.25 in (2005)
Month to date precipitation 2.60 0.88  
Year to date precipitation 40.58 28.59  
Sea Level Pressure  
Sea Level Pressure 30.24 in    
Wind  
Wind Speed 7 mph (WNW)    
Max Wind Speed 20 mph    
Max Gust Speed 30 mph    
Visibility 10 miles    
Events      
T = Trace of Precipitation, MM = Missing Value Source: NWS Daily Summary

Daily Weather History Graph

Daily Weather History Graph

Search for Another Location

Airport or City:

Astronomy

Oct. 11, 2019 Rise Set
Actual Time 7:32 AM CDT 6:54 PM CDT
Civil Twilight 7:05 AM CDT 7:20 PM CDT
Nautical Twilight 6:34 AM CDT 7:51 PM CDT
Astronomical Twilight 6:03 AM CDT 8:22 PM CDT
Moon 6:22 PM CDT (10/11) 5:15 AM CDT (10/11)
Length of Visible Light 12h 15m
Length of Day
11h 21m
Waxing Gibbous, 96% of the Moon is Illuminated
Oct 11
Waxing Gibbous
Oct 13
Full
Oct 21
Last Quarter
Oct 27
New
Nov 4
First Quarter

Hourly Weather History & Observations

Time (CDT) Temp. Windchill Dew Point Humidity Pressure Visibility Wind Dir Wind Speed Gust Speed Precip Events Conditions
12:17 AM 39.0 °F 34.8 °F 28.9 °F 67% 30.13 in 10.0 mi Variable 5.8 mph - N/A   Mostly Cloudy
12:52 AM 39.0 °F 31.8 °F 28.9 °F 67% 30.16 in 10.0 mi NW 11.5 mph 24.2 mph N/A   Overcast
1:52 AM 39.0 °F 33.4 °F 28.9 °F 67% 30.18 in 10.0 mi NW 8.1 mph - N/A   Mostly Cloudy
2:52 AM 37.9 °F 34.4 °F 28.0 °F 68% 30.19 in 10.0 mi Variable 4.6 mph 20.7 mph N/A   Overcast
3:52 AM 37.9 °F 33.5 °F 27.0 °F 65% 30.20 in 10.0 mi WNW 5.8 mph - N/A   Overcast
4:52 AM 37.9 °F 32.7 °F 26.1 °F 62% 30.21 in 10.0 mi NW 6.9 mph - N/A   Overcast
5:52 AM 37.9 °F 32.7 °F 26.1 °F 62% 30.23 in 10.0 mi Variable 6.9 mph - N/A   Overcast
6:52 AM 37.0 °F 31.0 °F 26.1 °F 65% 30.25 in 10.0 mi WNW 8.1 mph - N/A   Overcast
7:52 AM 36.0 °F 30.3 °F 25.0 °F 64% 30.26 in 10.0 mi West 6.9 mph - N/A   Mostly Cloudy
8:52 AM 36.0 °F 29.0 °F 27.0 °F 70% 30.28 in 10.0 mi West 9.2 mph - N/A   Mostly Cloudy
9:52 AM 39.0 °F 30.6 °F 26.1 °F 60% 30.31 in 10.0 mi West 15.0 mph 24.2 mph N/A   Partly Cloudy
10:52 AM 42.1 °F 35.2 °F 25.0 °F 51% 30.31 in 10.0 mi WNW 12.7 mph 21.9 mph N/A   Clear
11:52 AM 44.1 °F 38.1 °F 21.0 °F 40% 30.30 in 10.0 mi NNW 11.5 mph 26.5 mph N/A   Clear
12:52 PM 45.0 °F 38.2 °F 21.0 °F 39% 30.28 in 10.0 mi WNW 15.0 mph 26.5 mph N/A   Clear
1:52 PM 46.9 °F - 23.0 °F 39% 30.27 in 10.0 mi West 18.4 mph 28.8 mph N/A   Clear
2:52 PM 48.0 °F - 24.1 °F 39% 30.26 in 10.0 mi West 15.0 mph 23.0 mph N/A   Partly Cloudy
3:52 PM 48.9 °F - 24.1 °F 38% 30.25 in 10.0 mi West 10.4 mph 26.5 mph N/A   Partly Cloudy
4:52 PM 48.9 °F - 21.9 °F 35% 30.25 in 10.0 mi West 9.2 mph 20.7 mph N/A   Clear
5:52 PM 48.0 °F - 21.0 °F 34% 30.25 in 10.0 mi WNW 9.2 mph 18.4 mph N/A   Clear
6:52 PM 43.0 °F 41.3 °F 26.1 °F 51% 30.24 in 10.0 mi West 3.5 mph - N/A   Clear
7:52 PM 39.0 °F - 26.1 °F 60% 30.24 in 10.0 mi Calm Calm - N/A   Clear
8:52 PM 34.0 °F - 28.9 °F 82% 30.24 in 10.0 mi Calm Calm - N/A   Clear
9:52 PM 33.1 °F - 28.0 °F 82% 30.24 in 10.0 mi Calm Calm - N/A   Clear
10:52 PM 32.0 °F - 28.9 °F 88% 30.24 in 10.0 mi Calm Calm - N/A   Clear
11:52 PM 30.9 °F - 28.0 °F 89% 30.23 in 10.0 mi Calm Calm - N/A   Clear